Location: Neuvy Saint Sepulchre
(46.5953°N, 1.8122°E)
Time: 14:17:29
(UTC+02:00)

ISS - Pass Details

Date: 24 September 2022
Orbit: 414 x 417 km, 51.6° (Epoch: 01 October)

Event Time Altitude Azimuth Distance (km) Brightness Sun altitude
Rises 22:55:42 0° 296° (WNW) 2,366 1.1 -31.2°
Reaches altitude 10° 22:57:48 10° 299° (WNW) 1,500 -0.1 -31.5°
Enters shadow 22:58:03 12° 300° (WNW) 1,406 -0.3 -31.5°
